Reflectivity
-20 -20 -20 -20 -20 -20 -20 -20 -20 -20 -20 -6 24 3 7 2 10 17 8 4 -5 -12 -7 -18 -17 -20 16 -15 10 -15 6 4 18 -18 15 22 23 24 17 16 15 7 15
-20 -20 -20 -20 -20 -20 -20 -20 -20 -20 -20 -20 30 27 28 7 24 6 9 -15 20 14 6 -19 -20 -14 -20 -18 -20 -10 -10 19 28 30 -0 22 23 10 24 27 19 1 21
-10 -7 -20 -20 -20 -20 -20 -20 -20 -2 -20 -20 -20 -20 -9 13 9 10 -3 -5 -3 -5 4 -17 -2 1 -0 -2 7 15 7 25 30 31 32 11 16 23 17 20 -11 12 22
-3 -9 -9 -20 -20 -20 -20 -20 -20 -20 -13 -20 -20 -20 -20 -20 -4 10 2 8 8 14 17 8 -0 -1 3 11 22 18 33 35 29 30 30 14 19 14 27 26 31 22 27
6 9 -18 25 -17 -16 -20 -17 -2 -14 -20 -20 -20 -20 -20 -14 -11 -2 17 8 10 6 14 16 28 26 22 11 12 5 33 24 29 24 24 29 19 1 15 23 31 30 25
-20 8 20 9 -0 8 -19 14 -19 30 23 -20 -11 25 22 21 2 12 15 24 -8 15 30 29 25 33 28 28 33 39 30 35 33 32 27 30 22 24 24 25 26 29 26
10 33 33 32 17 6 16 23 23 20 21 25 -15 4 23 26 30 24 30 29 22 19 17 22 29 39 24 27 35 34 33 32 33 33 34 33 32 26 28 29 29 24 31
26 31 23 26 33 36 26 42 40 37 38 38 38 33 32 30 33 27 21 16 -2 19 35 37 31 29 29 29 32 32 28 31 26 30 35 36 32 33 31 22 27 33 31
1 10 26 37 35 39 38 27 31 28 27 27 29 25 29 29 26 21 25 19 22 19 20 15 17 22 21 14 14 18 11 14 13 8 14 16 22 30 29 27 23 28 34
-7 -9 -16 -5 7 4 23 27 23 19 6 1 -10 7 14 -1 18 22 14 15 9 1 -3 -2 -12 -13 -10 -19 -18 -13 -8 -8 -7 -10 -6 2 5 11 11 6 -3 16 25
-20 -20 -20 -20 -20 -20 -3 3 6 4 8 10 6 5 6 -0 -9 -11 -10 -6 -5 1 -2 -1 -4 -5 -8 -12 -18 -19 -5 2 10 4 -1 -8 -15 -6 -3 9 15 13 16
-20 -20 -20 -20 -20 -20 -20 -20 -20 -19 -20 -16 -5 -1 -0 -2 12 -0 -19 -19 -20 -20 -16 -13 -4 -15 -20 -20 -20 -0 -9 9 -8 9 14 13 13 12 11 14 17 17 18
-20 -20 -20 -20 -20 -20 -20 -20 -20 -20 -20 -20 -20 -20 -20 -20 -19 7 2 -20 -20 -20 -20 -20 -20 -20 -20 -20 -20 -20 1 -16 -11 -3 9 23 24 21 20 20 22 16 14
-20 -20 -20 -20 -20 -20 -20 -20 -20 -20 -20 -20 -20 -20 -20 -20 -20 -20 -20 -20 -1 -14 -19 -20 -20 -20 -20 -20 -20 -20 -20 -5 3 -2 1 20 20 18 19 22 24 18 22
-20 -20 -20 -20 -20 -20 -20 -20 -20 -20 -20 -20 -20 -20 -20 -20 -20 -20 -20 -18 -18 -20 -8 -20 -20 -20 -20 -20 -19 -20 -20 -20 -12 5 13 23 22 14 19 23 17 14 13
-20 -20 -20 -20 -20 -20 -20 -20 -20 -20 -20 -20 -20 -20 -20 -20 -20 -20 -20 -14 -16 -20 -20 -20 -20 3 -6 7 0 -5 -19 7 -14 -17 -3 7 12 17 23 14 19 11 13
-20 -20 -20 -20 -20 -20 -20 -20 -20 -20 -20 -20 -20 -20 -20 -20 -20 -20 -20 -20 -20 -20 -20 -20 -20 -20 -20 -20 -8 -2 2 5 6 -5 -5 -7 15 14 14 -0 -7 16 13
-20 -20 -20 -20 -20 -20 -20 -20 -20 -20 -20 -20 -20 -20 -20 -20 -20 -20 -20 -20 -20 -20 -20 -20 -20 -20 -20 -18 -15 -15 -20 -16 4 2 -11 1 16 13 2 -1 -9 -14 9
-20 -20 -20 -20 -20 -20 -20 -20 -20 -20 -20 -20 -20 -20 -20 -20 -20 -20 -20 -20 -20 -20 -20 -20 -20 -20 -20 -20 -16 -10 -19 -1 7 -7 4 -5 -7 6 -7 9 20 19 6
-20 -20 -20 -20 -20 -20 -20 -20 -20 -20 -20 -20 -20 -20 -20 -20 -20 -20 -20 -20 -20 -20 -20 -20 -20 -20 -20 -16 -9 2 -5 4 6 6 0 1 -14 -3 1 3 3 4 2
-20 -20 -20 -20 -20 -20 -20 -20 -20 -20 -20 -20 -20 -20 -20 -20 -20 -20 -20 -20 -20 -20 -20 -20 -20 -10 -6 -11 -14 0 -18 2 2 -5 1 4 3 -1 3 -5 -9 1 5
-20 -20 -20 -20 -20 -20 -20 -20 -20 -20 -20 -20 -20 -20 -20 -20 -20 -20 -20 -20 -20 -20 -20 -20 -16 -5 -4 -7 -2 -4 0 -1 -14 -5 -15 -11 -3 3 -20 -17 -10 1 6
-20 -20 -20 -20 -20 -20 -20 -16 -8 -20 -20 -20 -20 -20 -20 -20 -20 -20 -20 -20 -20 -20 -20 -20 -20 -5 -5 -1 4 7 4 -3 -5 -20 -11 0 -7 3 6 5 7 8 7
-20 -20 -20 -20 -20 -17 -7 -7 -12 -20 -20 -20 -20 -20 -20 -20 -20 -20 -20 -20 -20 -20 -20 -20 -20 -18 -20 0 -1 -1 -17 -20 -20 -20 -9 5 8 4 -9 3 -4 4 3
-20 -19 -1 8 5 2 10 -3 -20 -20 -20 -20 -20 -20 -20 -20 -20 -20 -20 -20 -20 -20 -20 -20 -20 -20 -20 -20 -20 -20 -20 -20 5 2 10 11 8 0 4 -18 0 -1 1
-5 7 7 -1 4 -1 -17 -17 -20 -20 -20 -20 -20 -20 -20 -20 -20 -20 -20 -20 -20 -20 -20 -20 -20 -20 -20 -20 -20 -20 -2 1 -13 1 13 5 3 1 -0 4 2 -0 1
Wind_Speed
13 14 14 13 15 15 15 16 17 17 17 17 18 17 18 15 13 12 14 13 16 15 14 16 18 18 11 10 10 9 10 10 13 8 2 4 8 8 7 8 6 7 8
12 12 12 12 13 15 17 18 17 17 16 16 18 18 17 17 15 15 15 13 13 15 16 16 18 13 16 15 10 13 12 12 11 14 6 7 7 9 9 12 8 7 8
7 9 12 12 13 15 16 17 17 17 16 16 16 16 17 17 16 16 15 14 14 15 16 16 15 17 14 11 12 10 10 9 7 9 6 3 5 3 5 5 8 6 5
6 6 8 11 12 12 13 15 14 15 14 14 15 16 16 16 15 14 14 13 13 11 13 16 15 16 15 11 10 9 11 11 7 9 7 4 3 3 4 7 6 5 7
6 4 5 5 4 4 6 10 12 13 13 14 15 15 15 14 11 14 14 14 14 13 13 9 5 4 3 7 6 11 10 8 7 7 8 4 5 4 11 7 10 6 6
11 11 4 5 7 6 5 5 7 11 4 3 13 10 5 3 7 8 12 5 5 5 4 2 1 6 8 6 11 10 5 11 11 9 9 9 14 11 8 9 9 6 6
15 14 11 7 8 10 12 7 7 8 12 10 10 12 10 10 11 6 8 5 4 4 3 3 0 3 4 3 5 4 7 7 10 6 12 13 13 13 11 11 12 10 8
21 17 14 12 14 15 15 6 11 11 14 10 14 14 13 12 17 17 16 10 9 11 10 8 7 7 7 7 5 1 1 1 3 4 6 5 3 3 3 1 6 1 3
14 12 12 11 13 13 12 14 13 14 13 12 11 13 15 13 18 16 12 9 11 10 7 8 6 6 12 11 5 3 3 2 2 6 9 9 10 13 11 7 4 2 2
15 15 15 16 16 17 16 14 11 12 13 10 13 14 17 13 18 16 11 7 9 6 6 6 11 8 8 7 3 3 4 3 4 5 3 1 4 7 14 6 9 8 3
11 13 15 15 15 15 14 12 10 11 11 11 13 12 14 13 15 17 13 8 6 5 4 4 4 10 8 7 5 1 2 3 4 1 2 3 4 3 2 1 3 3 6
10 11 12 13 11 10 13 11 12 12 12 12 11 10 9 11 18 17 17 15 10 7 7 5 6 11 10 9 8 10 6 1 1 1 2 3 2 2 3 3 4 3 3
10 11 11 11 11 11 11 11 9 11 10 10 9 8 8 7 8 16 16 15 13 6 5 5 5 7 9 7 11 12 10 2 2 2 2 2 2 1 1 1 1 2 2
8 9 8 9 9 9 8 8 8 8 8 7 7 6 6 7 8 7 7 8 10 8 7 6 6 8 9 8 7 7 4 3 2 2 2 1 1 1 2 2 2 2 2
5 5 6 6 7 8 8 7 7 9 7 5 5 5 5 6 7 10 10 7 7 9 7 5 6 6 7 6 6 5 5 4 3 2 2 2 3 3 3 3 3 3 4
3 3 4 3 4 4 5 6 12 11 11 12 11 7 4 7 8 9 10 9 11 12 5 5 4 6 7 6 5 6 6 7 5 4 4 4 5 5 5 3 4 5 6
3 3 3 2 3 3 3 3 4 4 9 10 9 10 9 8 9 11 10 7 11 7 5 5 5 5 5 5 6 7 7 6 7 5 5 5 5 5 6 5 5 5 6
4 3 3 3 2 3 3 3 2 2 3 3 5 7 7 9 9 9 10 4 4 6 5 4 5 5 6 7 5 5 6 7 6 5 6 7 7 6 6 6 6 7 7
5 4 4 3 2 2 2 3 3 2 1 1 1 3 3 3 4 6 7 4 4 4 4 4 5 5 6 7 7 7 7 7 8 7 6 6 7 6 6 6 7 11 11
6 6 6 4 4 3 3 2 2 2 1 0 1 2 3 4 3 4 4 4 4 4 5 5 6 6 6 7 7 7 7 7 7 6 7 7 6 7 7 7 7 7 7
6 6 9 5 5 4 4 3 3 1 0 1 2 1 4 4 4 4 4 4 4 4 5 5 6 6 7 7 7 6 7 7 8 8 8 8 7 7 7 7 7 7 7
7 7 7 6 5 4 4 3 3 2 2 3 3 2 5 4 4 4 4 4 4 4 4 5 5 6 6 6 6 7 7 7 8 8 9 9 9 9 8 8 8 7 6
7 7 7 5 5 6 4 3 3 3 3 3 3 3 4 4 4 4 4 5 4 5 5 5 6 6 6 6 6 6 7 8 8 8 9 9 9 9 8 8 8 7 6
8 8 8 7 6 5 5 4 3 4 4 4 4 4 4 4 4 5 5 5 5 5 5 5 5 7 7 6 6 6 6 7 7 8 12 8 7 10 9 8 8 8 7
8 8 7 6 5 5 5 4 4 4 4 4 4 4 4 4 4 5 4 4 4 5 6 6 5 6 7 7 7 9 10 16 13 11 7 8 9 11 8 8 8 7 6
7 7 7 6 5 5 4 4 5 5 5 5 4 4 4 4 4 5 4 4 4 5 6 6 6 7 8 7 7 10 14 13 12 15 9 6 7 7 7 8 9 6 6
Wind_Direction
222 219 217 213 218 223 220 220 220 224 217 231 229 214 215 208 204 207 207 208 215 212 213 218 219 225 228 231 230 228 232 228 244 235 138 175 194 191 208 222 226 212 214
229 224 218 213 217 222 223 221 220 222 218 216 232 232 229 221 216 215 213 209 219 221 216 220 222 217 225 224 223 228 226 227 231 242 184 210 215 203 197 188 201 220 231
228 219 220 214 213 220 222 224 221 219 211 210 226 234 235 230 223 217 217 216 218 221 221 218 222 224 221 215 221 229 226 241 208 232 229 195 200 196 196 210 200 172 234
210 211 213 215 214 224 226 223 213 219 227 220 224 228 232 235 232 226 216 216 215 221 227 224 216 217 223 223 231 234 253 247 216 216 216 186 177 182 201 212 219 186 186
152 180 221 215 185 201 231 239 230 226 228 229 236 235 232 229 226 224 217 217 222 222 221 223 214 185 290 267 250 241 229 224 215 221 226 188 191 177 201 196 226 216 209
52 34 80 76 68 66 24 320 280 240 225 289 240 232 199 167 181 214 214 196 141 159 152 136 174 197 214 247 246 234 226 227 230 225 230 225 227 222 218 201 206 190 217
49 44 27 33 83 65 50 53 61 80 75 45 77 77 55 55 41 91 105 109 149 135 147 183 252 28 33 243 249 259 259 263 267 261 241 230 235 226 207 201 205 219 214
39 26 17 28 59 61 58 49 93 86 72 63 61 63 63 49 54 65 67 68 67 64 53 41 32 20 5 345 331 36 138 255 247 187 186 197 154 122 147 303 260 269 73
48 44 42 51 73 88 91 53 56 73 70 64 62 65 62 52 45 51 69 65 62 61 57 46 46 37 23 15 350 317 296 328 334 171 161 157 151 153 145 123 127 111 10
31 35 42 44 51 59 62 63 60 64 71 68 67 64 64 63 50 48 53 60 67 65 62 55 42 40 33 38 52 10 312 314 317 336 324 243 167 191 169 176 155 153 148
34 33 41 46 50 53 59 60 67 71 75 71 71 67 65 57 53 52 48 60 65 73 67 44 32 19 12 3 354 177 241 306 263 264 310 327 333 299 290 269 235 203 162
40 47 43 43 41 43 54 57 58 63 66 64 65 62 53 51 43 45 48 48 36 54 43 26 20 8 6 2 352 336 302 228 298 230 259 266 244 294 339 353 1 7 9
35 38 41 46 45 50 52 52 53 54 56 56 52 53 44 40 37 29 33 36 35 36 26 28 34 28 16 13 2 1 339 183 214 238 242 241 236 252 172 137 60 40 55
41 40 37 49 52 56 54 53 57 53 56 55 51 44 39 28 22 18 14 8 7 8 356 9 12 27 27 15 15 7 354 338 278 261 253 247 255 213 230 188 205 187 233
61 56 53 49 57 63 61 50 59 51 45 64 61 50 33 36 24 16 12 1 355 343 341 8 359 4 2 1 358 357 352 339 323 296 276 268 258 238 238 201 217 195 221
73 58 51 66 70 78 100 96 69 73 72 74 63 52 74 45 27 22 18 19 10 4 41 25 9 353 353 348 348 346 343 344 337 316 295 276 271 258 256 225 219 221 227
117 119 114 103 97 100 92 95 114 105 79 68 65 54 54 43 29 25 24 28 31 32 41 11 359 344 337 337 340 338 333 332 324 315 307 295 282 269 270 249 230 224 230
177 170 159 138 125 113 102 102 93 91 96 84 65 38 36 35 30 21 8 350 16 28 22 4 352 340 330 326 327 330 330 324 321 317 310 304 296 277 273 260 246 237 233
193 179 167 157 151 140 150 143 121 104 91 63 83 168 33 22 26 23 18 19 2 0 358 346 344 336 334 329 323 326 327 321 331 321 312 305 301 291 279 269 260 249 241
196 186 183 175 169 176 186 190 160 163 177 38 347 352 342 337 352 358 2 349 339 338 339 331 329 330 327 327 328 324 322 326 325 323 324 320 315 305 293 283 270 264 251
188 182 191 192 194 189 178 187 169 164 262 278 286 309 310 304 312 324 323 321 324 323 318 316 317 315 317 318 317 315 322 320 320 321 321 323 317 311 305 292 278 267 257
189 187 188 198 188 188 184 188 176 202 243 258 267 275 292 286 293 302 305 302 305 308 310 308 307 305 306 306 303 305 310 312 311 313 313 313 316 314 313 308 300 283 257
192 185 185 185 192 191 194 192 193 213 245 261 270 266 263 273 278 278 288 295 301 302 307 304 302 303 306 301 302 305 305 308 306 304 300 306 310 309 312 312 309 296 267
190 191 191 193 191 193 194 200 200 220 234 239 248 255 262 271 275 281 286 292 295 302 304 301 299 301 301 300 310 311 302 296 291 280 277 287 297 309 310 306 307 306 291
189 189 191 189 189 196 197 201 209 227 231 232 239 247 256 260 271 279 284 288 295 301 301 303 295 304 299 301 296 297 294 296 296 306 308 307 307 306 304 308 313 313 309
182 183 186 181 180 200 195 207 219 220 223 226 228 230 237 249 259 265 266 270 287 298 300 295 298 300 299 295 297 298 301 315 309 300 302 304 308 311 315 319 326 318 321